Tracking 29892 objects as of 21-Nov-2024
HD Live streaming from Space Station
objects crossing your sky now

FENGYUN 1C DEB

Track FENGYUN 1C DEB now!
10-day predictions


NORAD ID: 31048
Int'l Code: 1999-025BES
Perigee: 660.8 km
Apogee: 717.2 km
Inclination: 99.0 °
Period: 98.4 minutes
Semi major axis: 7060 km
RCS: 0.014 m2 (small)
Launch date: May 10, 1999
Source: People's Republic of China (PRC)
Launch site: Taiyaun Space Center, China (TSC)

Note: This is SATELLITE DEBRIS
Your satellite tracking list
Your tracking list is empty




NASA's NSSDC Master Catalog

Two Line Element Set (TLE):
1 31048U 99025BES 24325.10378634  .00060057  00000-0  11365-1 0  9994
2 31048  99.0429 184.3103 0040000 291.9420 219.7974 14.63509001921990
Source of the keplerian elements: AFSPC